Time,TemperatureF,DewpointF,PressureIn,WindDirection,WindDirectionDegrees,WindSpeedMPH,WindSpeedGustMPH,Humidity,HourlyPrecipIn,Conditions,Clouds,dailyrainin,SoftwareType,DateUTC
2013-08-11 00:00:00,67.0,58.0,30.07,NNE,31,0.0,5.0,73,0.00,,,-99.99,,2013-08-11 04:00:00,
2013-08-11 00:32:00,67.0,58.0,30.07,NNE,31,0.0,5.0,73,0.00,,,-99.99,,2013-08-11 04:32:00,
2013-08-11 00:43:00,67.0,58.0,30.07,NNE,31,0.0,5.0,73,0.00,,,-99.99,,2013-08-11 04:43:00,
2013-08-11 00:53:00,67.0,58.0,30.07,NNE,31,0.0,5.0,73,0.00,,,-99.99,,2013-08-11 04:53:00,
2013-08-11 01:00:00,66.0,55.0,30.07,NE,35,3.0,5.0,67,0.00,,,-99.99,,2013-08-11 05:00:00,
2013-08-11 01:38:00,66.0,55.0,30.07,NE,35,3.0,5.0,67,0.00,,,-99.99,,2013-08-11 05:38:00,
2013-08-11 01:50:00,66.0,55.0,30.07,NE,35,3.0,5.0,67,0.00,,,-99.99,,2013-08-11 05:50:00,
2013-08-11 01:58:00,66.0,55.0,30.07,NE,35,3.0,5.0,67,0.00,,,-99.99,,2013-08-11 05:58:00,
2013-08-11 02:38:00,64.0,54.0,30.07,NE,51,0.0,6.0,71,0.00,,,-99.99,,2013-08-11 06:38:00,
2013-08-11 02:49:00,64.0,54.0,30.07,NE,51,0.0,6.0,71,0.00,,,-99.99,,2013-08-11 06:49:00,
2013-08-11 02:57:00,64.0,54.0,30.07,NE,51,0.0,6.0,71,0.00,,,-99.99,,2013-08-11 06:57:00,
2013-08-11 03:38:00,64.0,53.0,30.08,NNE,33,4.0,9.0,68,0.00,,,-99.99,,2013-08-11 07:38:00,
2013-08-11 03:47:00,64.0,53.0,30.08,NNE,33,4.0,9.0,68,0.00,,,-99.99,,2013-08-11 07:47:00,
2013-08-11 03:56:00,64.0,53.0,30.08,NNE,33,4.0,9.0,68,0.00,,,-99.99,,2013-08-11 07:56:00,
2013-08-11 04:37:00,62.0,53.0,30.09,NNE,12,0.0,10.0,74,0.00,,,-99.99,,2013-08-11 08:37:00,
2013-08-11 04:49:00,62.0,53.0,30.09,NNE,12,0.0,10.0,74,0.00,,,-99.99,,2013-08-11 08:49:00,
2013-08-11 04:59:00,62.0,53.0,30.09,NNE,12,0.0,10.0,74,0.00,,,-99.99,,2013-08-11 08:59:00,
2013-08-11 05:00:00,60.0,54.0,30.10,NE,50,0.0,5.0,80,0.00,,,-99.99,,2013-08-11 09:00:00,
2013-08-11 05:44:00,60.0,54.0,30.10,NE,50,0.0,5.0,80,0.00,,,-99.99,,2013-08-11 09:44:00,
2013-08-11 06:38:00,59.0,52.0,30.11,NE,51,0.0,0.0,79,0.00,,,-99.99,,2013-08-11 10:38:00,
2013-08-11 06:47:00,59.0,52.0,30.11,NE,51,0.0,0.0,79,0.00,,,-99.99,,2013-08-11 10:47:00,
2013-08-11 06:58:00,59.0,52.0,30.11,NE,51,0.0,0.0,79,0.00,,,-99.99,,2013-08-11 10:58:00,
2013-08-11 07:00:00,59.0,53.0,30.11,ESE,104,0.0,0.0,82,0.00,,,-99.99,,2013-08-11 11:00:00,
2013-08-11 07:40:00,59.0,53.0,30.11,ESE,104,0.0,0.0,82,0.00,,,-99.99,,2013-08-11 11:40:00,
2013-08-11 07:50:00,59.0,53.0,30.11,ESE,104,0.0,0.0,82,0.00,,,-99.99,,2013-08-11 11:50:00,
2013-08-11 08:38:00,63.0,52.0,30.12,NE,42,0.0,0.0,68,0.00,,,-99.99,,2013-08-11 12:38:00,
2013-08-11 08:47:00,63.0,52.0,30.12,NE,42,0.0,0.0,68,0.00,,,-99.99,,2013-08-11 12:47:00,
2013-08-11 08:56:00,63.0,52.0,30.12,NE,42,0.0,0.0,68,0.00,,,-99.99,,2013-08-11 12:56:00,
2013-08-11 09:00:00,65.0,53.0,30.13,NE,38,0.0,6.0,66,0.00,,,-99.99,,2013-08-11 13:00:00,
2013-08-11 09:41:00,65.0,53.0,30.13,NE,38,0.0,6.0,66,0.00,,,-99.99,,2013-08-11 13:41:00,
2013-08-11 09:48:00,65.0,53.0,30.13,NE,38,0.0,6.0,66,0.00,,,-99.99,,2013-08-11 13:48:00,
2013-08-11 09:58:00,65.0,53.0,30.13,NE,38,0.0,6.0,66,0.00,,,-99.99,,2013-08-11 13:58:00,
2013-08-11 10:00:00,68.0,51.0,30.14,NNE,16,3.0,9.0,53,0.00,,,-99.99,,2013-08-11 14:00:00,
2013-08-11 10:49:00,68.0,51.0,30.14,NNE,16,3.0,9.0,53,0.00,,,-99.99,,2013-08-11 14:49:00,
2013-08-11 10:57:00,68.0,51.0,30.14,NNE,16,3.0,9.0,53,0.00,,,-99.99,,2013-08-11 14:57:00,
2013-08-11 11:00:00,70.0,53.0,30.15,NNW,337,0.0,5.0,56,0.00,,,-99.99,,2013-08-11 15:00:00,
2013-08-11 11:41:00,70.0,53.0,30.15,NNW,337,0.0,5.0,56,0.00,,,-99.99,,2013-08-11 15:41:00,
2013-08-11 11:49:00,70.0,53.0,30.15,NNW,337,0.0,5.0,56,0.00,,,-99.99,,2013-08-11 15:49:00,
2013-08-11 12:00:00,73.0,54.0,30.14,NNW,344,0.0,1.0,52,0.00,,,-99.99,,2013-08-11 16:00:00,
2013-08-11 12:41:00,73.0,54.0,30.14,NNW,344,0.0,1.0,52,0.00,,,-99.99,,2013-08-11 16:41:00,
2013-08-11 12:47:00,73.0,54.0,30.14,NNW,344,0.0,1.0,52,0.00,,,-99.99,,2013-08-11 16:47:00,
2013-08-11 12:59:00,73.0,54.0,30.14,NNW,344,0.0,1.0,52,0.00,,,-99.99,,2013-08-11 16:59:00,
2013-08-11 13:00:00,74.0,54.0,30.12,SW,229,0.0,0.0,50,0.00,,,-99.99,,2013-08-11 17:00:00,
2013-08-11 13:38:00,74.0,54.0,30.12,SW,229,0.0,0.0,50,0.00,,,-99.99,,2013-08-11 17:38:00,
2013-08-11 13:48:00,74.0,54.0,30.12,SW,229,0.0,0.0,50,0.00,,,-99.99,,2013-08-11 17:48:00,
2013-08-11 14:00:00,75.0,53.0,30.10,SW,219,0.0,7.0,46,0.00,,,-99.99,,2013-08-11 18:00:00,
2013-08-11 14:40:00,75.0,53.0,30.10,SW,219,0.0,7.0,46,0.00,,,-99.99,,2013-08-11 18:40:00,
2013-08-11 14:58:00,75.0,53.0,30.10,SW,219,0.0,7.0,46,0.00,,,-99.99,,2013-08-11 18:58:00,
2013-08-11 15:00:00,77.0,56.0,30.09,SW,228,0.0,6.0,48,0.00,,,-99.99,,2013-08-11 19:00:00,
2013-08-11 15:35:00,77.0,56.0,30.09,SW,228,0.0,6.0,48,0.00,,,-99.99,,2013-08-11 19:35:00,
2013-08-11 15:51:00,77.0,56.0,30.09,SW,228,0.0,6.0,48,0.00,,,-99.99,,2013-08-11 19:51:00,
2013-08-11 16:00:00,77.0,58.0,30.07,SW,221,5.0,9.0,52,0.00,,,-99.99,,2013-08-11 20:00:00,
2013-08-11 16:40:00,77.0,58.0,30.07,SW,221,5.0,9.0,52,0.00,,,-99.99,,2013-08-11 20:40:00,
2013-08-11 16:50:00,77.0,58.0,30.07,SW,221,5.0,9.0,52,0.00,,,-99.99,,2013-08-11 20:50:00,
2013-08-11 16:59:00,77.0,58.0,30.07,SW,221,5.0,9.0,52,0.00,,,-99.99,,2013-08-11 20:59:00,
2013-08-11 17:00:00,78.0,59.0,30.06,WSW,245,4.0,9.0,52,0.00,,,-99.99,,2013-08-11 21:00:00,
2013-08-11 17:37:00,78.0,59.0,30.06,WSW,245,4.0,9.0,52,0.00,,,-99.99,,2013-08-11 21:37:00,
2013-08-11 17:50:00,78.0,59.0,30.06,WSW,245,4.0,9.0,52,0.00,,,-99.99,,2013-08-11 21:50:00,
2013-08-11 17:59:00,78.0,59.0,30.06,WSW,245,4.0,9.0,52,0.00,,,-99.99,,2013-08-11 21:59:00,
2013-08-11 18:00:00,78.0,62.0,30.05,North,0,0.0,7.0,56,0.00,,,-99.99,,2013-08-11 22:00:00,
2013-08-11 18:36:00,78.0,62.0,30.05,North,0,0.0,7.0,56,0.00,,,-99.99,,2013-08-11 22:36:00,
2013-08-11 18:48:00,78.0,62.0,30.05,North,0,0.0,7.0,56,0.00,,,-99.99,,2013-08-11 22:48:00,
2013-08-11 18:59:00,78.0,62.0,30.05,North,0,0.0,7.0,56,0.00,,,-99.99,,2013-08-11 22:59:00,
2013-08-11 19:00:00,75.0,64.0,30.04,ENE,66,0.0,0.0,68,0.00,,,-99.99,,2013-08-11 23:00:00,
2013-08-11 19:37:00,75.0,64.0,30.04,ENE,66,0.0,0.0,68,0.00,,,-99.99,,2013-08-11 23:37:00,
2013-08-11 19:50:00,75.0,64.0,30.04,ENE,66,0.0,0.0,68,0.00,,,-99.99,,2013-08-11 23:50:00,
2013-08-11 19:58:00,75.0,64.0,30.04,ENE,66,0.0,0.0,68,0.00,,,-99.99,,2013-08-11 23:58:00,
2013-08-11 20:00:00,71.0,62.0,30.04,East,85,0.0,1.0,73,0.00,,,-99.99,,2013-08-12 00:00:00,
2013-08-11 20:38:00,71.0,62.0,30.04,East,85,0.0,1.0,73,0.00,,,-99.99,,2013-08-12 00:38:00,
2013-08-11 20:59:00,71.0,62.0,30.04,East,85,0.0,1.0,73,0.00,,,-99.99,,2013-08-12 00:59:00,
2013-08-11 21:00:00,70.0,62.0,30.05,ESE,109,0.0,4.0,75,0.00,,,-99.99,,2013-08-12 01:00:00,
2013-08-11 21:40:00,70.0,62.0,30.05,ESE,109,0.0,4.0,75,0.00,,,-99.99,,2013-08-12 01:40:00,
2013-08-11 21:48:00,70.0,62.0,30.05,ESE,109,0.0,4.0,75,0.00,,,-99.99,,2013-08-12 01:48:00,
2013-08-11 21:57:00,70.0,62.0,30.05,ESE,109,0.0,4.0,75,0.00,,,-99.99,,2013-08-12 01:57:00,
2013-08-11 22:00:00,70.0,62.0,30.05,SSE,147,4.0,8.0,75,0.00,,,-99.99,,2013-08-12 02:00:00,
2013-08-11 22:37:00,70.0,62.0,30.05,SSE,147,4.0,8.0,75,0.00,,,-99.99,,2013-08-12 02:37:00,
2013-08-11 22:50:00,70.0,62.0,30.05,SSE,147,4.0,8.0,75,0.00,,,-99.99,,2013-08-12 02:50:00,
2013-08-11 23:00:00,68.0,63.0,30.05,NE,49,0.0,5.0,84,0.00,,,-99.99,,2013-08-12 03:00:00,
2013-08-11 23:39:00,68.0,63.0,30.05,NE,49,0.0,5.0,84,0.00,,,-99.99,,2013-08-12 03:39:00,
2013-08-11 23:48:00,68.0,63.0,30.05,NE,49,0.0,5.0,84,0.00,,,-99.99,,2013-08-12 03:48:00,